Sabadell Airport

Jump to: basic info | weather | runways | comments

Related pages: nearby airports | nearby navaids | notams | map

Basic information (top)

Codes: QSA LELL
Location: lon 41.520901, lat 2.105080, elev 485 ft / 148 m msl
Status: small_airport

Weather (top)

Current conditions (rec'd 2014/07/25 13:00Z):

LELL 251300Z 00000KT 9999 FEW035 29/18 Q1012

Airport forecast (rec'd 2014/07/25 09:31Z):

TAF LELL 250800Z 2509/2609 12008KT 9999 FEW030 TX30/2513Z TN18/2605Z PROB40 
      TEMPO 2509/2515 FEW050CB PROB30 2510/2514 TS

Runways (top)

13/31: 2,953 ft (900 m) — surface unknown — not lighted

Latest comments (top)

Great service, easy in & out: Here our expenses for 3 days in ... [read]

great service, great people: So going on a helicopter through spain ... [read]

More... (top)

See also NOTAMs and nearby airports and navaids, or visit the Sabadell Airport page at the main OurAirports website..